Content
SEND FEEDBACK

Daily
Averages
Monthly
Summary
French Polynesia

PAPEETE, FRENCH POLYNESIA


Home > Oceania > French Polynesia
Elevation: 7 feet     Latitude: 17 33S     Longitude: 149 36W

WEATHER
 
SELECT A DAY
Number of Records: 214,722;   Date Range: 6/30/96 - 10/30/14
 
SHARE

PRINT THIS DATA

[ ← Previous Day ]
WEATHER ALMANAC - APRIL 16, 2013
[ Next Day → ]
[ °C ]   °F
Weather ElementAverageHighLow
Temperature81.6 °F87.8 °F (12:00 pm)77 °F (1:30 am)
Dewpoint72.9 °F75.2 °F (8:30 am)69.8 °F (11:00 pm)
Humidity74.4 %89 % (1:30 am)58 % (2:00 pm)
Barometer29.92 in29.96 in (8:00 am)29.86 in (2:30 pm)
Wind Speed6 mph22.4 mph (2:00 pm)
Weather ElementAverage
Visibility7.4 mi
Wind DirectionESE (120.6 °)

Weather ElementTotal
Precipitation---
Cooling Degree Days17.4 (Base 65)
Growing Degree Days32.4 (Base 50)
Averaged from 55 records on April 16, 2013
WEATHER CONDITIONS BREAKOUT
WIND DIRECTION BREAKOUT
WEATHER BY HOUR - APRIL 16, 2013
[ °C ]   °F
Local TimeTemperatureDewpointHumidityBarometerVisibilityWind DirectionWind SpeedGust SpeedPrecipitationEventsConditions
12:30 AM78.8 °F73.4 °F83 %29.92 in6.2 miVariable2.3 mphPartly Cloudy
1:00 AM78.8 °F73.4 °F83 %29.89 in6.2 miCalmPartly Cloudy
1:30 AM77.0 °F73.4 °F89 %29.89 in6.2 miVariable2.3 mphPartly Cloudy
2:00 AM77.0 °F73.0 °F85 %29.90 in12.0 miCalmScattered Clouds
2:00 AM77.0 °F73.4 °F89 %29.89 in6.2 miCalmPartly Cloudy
2:41 AM77.0 °F73.4 °F89 %29.89 in6.2 miSSE (150°)2.3 mphPartly Cloudy
3:00 AM77.0 °F71.6 °F83 %29.89 in6.2 miSouth (170°)5.8 mphPartly Cloudy
3:30 AM77.0 °F71.6 °F83 %29.89 in6.2 miSSE (160°)5.8 mphMostly Cloudy
4:00 AM77.0 °F71.6 °F83 %29.89 in6.2 miSSE (160°)4.6 mphMostly Cloudy
4:30 AM77.0 °F71.6 °F83 %29.89 in6.2 miSSE (160°)4.6 mphPartly Cloudy
5:00 AM77.0 °F72.0 °F80 %29.90 in37.0 miSouth (180°)11.2 mphClear
5:00 AM77.0 °F71.6 °F83 %29.89 in6.2 miSouth (180°)5.8 mph
5:30 AM77.0 °F71.6 °F83 %29.89 in6.2 miSSE (160°)4.6 mphScattered Clouds
6:00 AM77.0 °F71.6 °F83 %29.92 in6.2 miVariable2.3 mphScattered Clouds
6:30 AM77.0 °F71.6 °F83 %29.92 in6.2 miVariable2.3 mphScattered Clouds
7:00 AM78.8 °F73.4 °F83 %29.92 in6.2 miSouth (170°)4.6 mphScattered Clouds
7:30 AM80.6 °F71.6 °F74 %29.95 in6.2 miSouth (170°)2.3 mphPartly Cloudy
8:00 AM83.0 °F73.0 °F66 %29.96 in9.0 miWSW (240°)3.5 mphScattered Clouds
8:00 AM82.4 °F73.4 °F74 %29.95 in6.2 miWSW (240°)3.5 mphPartly Cloudy
8:30 AM84.2 °F75.2 °F74 %29.95 in6.2 miSSW (210°)4.6 mphPartly Cloudy
9:00 AM84.2 °F73.4 °F70 %29.95 in6.2 miSW (220°)4.6 mphPartly Cloudy
9:30 AM86.0 °F75.2 °F70 %29.95 in6.2 miWSW (240°)4.6 mphPartly Cloudy
10:00 AM86.0 °F73.4 °F66 %29.95 in6.2 miSW (230°)3.5 mphScattered Clouds
10:30 AM86.0 °F75.2 °F70 %29.95 in6.2 miVariable2.3 mphScattered Clouds
11:00 AM86.0 °F75.0 °F62 %29.95 in9.0 miWest (280°)2.3 mphPartly Cloudy
11:00 AM86.0 °F75.2 °F70 %29.95 in6.2 miVariable2.3 mphScattered Clouds
11:30 AM86.0 °F75.2 °F70 %29.92 in6.2 miVariable3.5 mphThunderstormScattered Clouds
12:00 PM87.8 °F73.4 °F62 %29.92 in6.2 miENE (60°)15.0 mphScattered Clouds
12:30 PM86.0 °F71.6 °F62 %29.92 in6.2 miENE (70°)15.0 mphScattered Clouds
1:00 PM86.0 °F75.2 °F70 %29.89 in6.2 miNE (50°)13.8 mphScattered Clouds
1:30 PM86.0 °F73.4 °F66 %29.89 in6.2 miNE (40°)11.5 mphMostly Cloudy
2:00 PM87.0 °F74.0 °F58 %29.89 in9.0 miNE (40°)22.4 mphPartly Cloudy
2:00 PM86.0 °F73.4 °F66 %29.89 in6.2 miNE (40°)11.5 mphMostly Cloudy
2:30 PM86.0 °F73.4 °F66 %29.86 in6.2 miNNE (30°)12.7 mphMostly Cloudy
3:00 PM87.8 °F73.4 °F62 %29.86 in6.2 miNE (40°)13.8 mphScattered Clouds
3:30 PM86.0 °F73.4 °F66 %29.86 in6.2 miNNE (20°)11.5 mphPartly Cloudy
4:00 PM84.2 °F73.4 °F70 %29.86 in6.2 miNNE (30°)10.4 mphPartly Cloudy
4:30 PM86.0 °F71.6 °F62 %29.89 in6.2 miNE (40°)11.5 mphPartly Cloudy
5:00 PM84.0 °F73.0 °F62 %29.90 in16.0 miSouth (190°)2.3 mphScattered Clouds
5:00 PM84.2 °F73.4 °F70 %29.89 in6.2 miVariable2.3 mphPartly Cloudy
5:30 PM82.4 °F73.4 °F74 %29.89 in6.2 miVariable3.5 mphPartly Cloudy
6:00 PM82.4 °F73.4 °F74 %29.89 in6.2 miSSW (200°)8.1 mphScattered Clouds
6:30 PM82.4 °F75.2 °F79 %29.92 in6.2 miSSW (210°)4.6 mphScattered Clouds
7:00 PM82.4 °F73.4 °F74 %29.92 in6.2 miSouth (180°)5.8 mphScattered Clouds
7:30 PM80.6 °F73.4 °F79 %29.95 in6.2 miSSW (200°)5.8 mphScattered Clouds
8:00 PM80.0 °F73.0 °F73 %29.96 in12.0 miSouth (190°)3.5 mphScattered Clouds
8:00 PM80.6 °F73.4 °F79 %29.95 in6.2 miSouth (190°)3.5 mphScattered Clouds
8:30 PM78.8 °F71.6 °F78 %29.95 in6.2 miSouth (170°)5.8 mphScattered Clouds
9:00 PM78.8 °F71.6 °F78 %29.95 in6.2 miSouth (170°)4.6 mphScattered Clouds
9:30 PM78.8 °F71.6 °F78 %29.95 in6.2 miSouth (170°)4.6 mphScattered Clouds
10:00 PM78.8 °F71.6 °F78 %29.95 in6.2 miSouth (180°)5.8 mphScattered Clouds
10:30 PM78.8 °F71.6 °F78 %29.95 in6.2 miSouth (170°)5.8 mphScattered Clouds
11:00 PM79.0 °F71.0 °F69 %29.96 in12.0 miSouth (170°)5.8 mphScattered Clouds
11:00 PM78.8 °F69.8 °F74 %29.95 in6.2 miSouth (170°)5.8 mphScattered Clouds
11:30 PM78.8 °F69.8 °F74 %29.95 in6.2 miSouth (170°)6.9 mphScattered Clouds
Hourly data recorded from NTAA, located miles away from Papeete, French Polynesia







STORIES FROM OUR PARTNERS